Weather in Calabozo

Venezuela     8°55′21″N   67°25′41″W
temp.,
°C
wind,
m/s
gust,
m/s
humid.,
%
clouds,
%
prec.,
mm/h
press.,
hPa
HPBL,
m
13 april, tue
tue1323:00+26wsw1281100 0.3 101240
02:00+25wsw1284100 0.3 101062
05:00+25sw1387100 0.0 101198
08:00+26wsw127786 0.0 1013344
11:00+32ssw1254100 0.0 10121241
14:00+35sw234274 0.0 10092195
17:00+31nw2557100 0.6 1007182
20:00+30nne1262100 0.9 100952
14 april, wed
wed1423:00+29nne1163100 0.0 101014
02:00+25s4986100 3.1 1010336
05:00+24se2691100 6.3 1010316
08:00+23se2793100 13.4 1013304
11:00+24e2491100 2.8 1015236
14:00+25sw1184100 3.4 1011419
17:00+26w2181100 0.0 1010495
20:00+24wsw129091 0.0 101167
15 april, thu
thu1523:00+24w269264 0.0 1013241
02:00+23w1494100 0.0 1010146
05:00+23w1295100 0.0 101150
08:00+25sw1283100 0.0 1012236
11:00+29ssw2263100 0.0 1013903
14:00+31e0156100 0.0 1010920
17:00+31ene115148 0.0 10081407
20:00+28e2266100 0.0 101037
16 april, fri
fri1623:00+27se1171100 0.0 101111
02:00+26ne117468 0.0 100911
05:00+25ene28795 1.0 1010275
08:00+27e496938 1.1 1012735
11:00+31e465165 0.0 10121734
14:00+32ese3546100 0.0 10091682
17:00+31nnw114988 0.0 1007125
20:00+28wsw236115 0.0 100961
17 april, sat
sat1723:00+28ese116499 0.0 101129
02:00+27ene246977 0.0 101089
05:00+26ene397117 0.0 1011367
08:00+27e48675 0.1 1013929
11:00+31ese574878 0.0 10131739
14:00+35ese463494 0.0 10102576
17:00+35ese353029 0.0 10082720
20:00+30sw114139 0.0 101011